Volver al catálogo

COSMOS 340

ActivoMilitarLEO
NORAD 4387·PAYLOAD·🇷🇺 Russia

Lanzado Apr 25, 1970 desde Plesetsk Cosmodrome

Loading…

Próximos Pases (próximas 24 horas)

TLE

ActualizadoSource: Space-Track

Época: Sep 14, 2026, 15:36 UTC

1 04387U 70036E   26257.65051060  .00000012  00000-0  16698-3 0  9999
2 04387  74.0295 152.1916 0039110 114.1490 258.9482 12.56337780585626

Sigue COSMOS 340 en tiempo real con AllMySat

Download on the App Store